McComb, MS

6:35 AM CDT on August 21, 2017 (GMT -0500)
McComb-Pike County-Lewis

Weather History for KMCB - January, 2012

Change the Weather History Date:

Friday, January 20, 2012

  Actual Average Record
Temperature  
Mean Temperature 68 °F -  
Max Temperature 75 °F 56 °F 79 °F (1954)
Min Temperature 60 °F 35 °F 7 °F (1985)
Cooling Degree Days 2    
Growing Degree Days 18 (Base 50)    
Moisture  
Dew Point 63 °F    
Average Humidity 89    
Maximum Humidity 100    
Minimum Humidity 64    
Precipitation  
Precipitation 0.35 in - - ()
Sea Level Pressure  
Sea Level Pressure 29.95 in    
Wind  
Wind Speed 5 mph (SSW)    
Max Wind Speed 16 mph    
Max Gust Speed 22 mph    
Visibility 7 miles    
Events Fog , Rain    
Averages and records for this station are not official NWS values.
T = Trace of Precipitation, MM = Missing Value Source: NWS Daily Summary

Daily Weather History Graph

Daily Weather History Graph

Search for Another Location

Airport or City:

Trip Planner

Search our weather history database for the weather conditions in past years. The results will help you decide how hot, cold, wet, or windy it might be!

Date:

Astronomy

Jan. 20, 2012 Rise Set
Actual Time 6:59 AM CST 5:26 PM CST
Civil Twilight 6:33 AM CST 5:51 PM CST
Nautical Twilight 6:04 AM CST 6:21 PM CST
Astronomical Twilight 5:35 AM CST 6:50 PM CST
Moon 4:33 AM CST (1/20) 3:01 PM CST (1/20)
Length of Visible Light 11h 18m
Length of Day
10h 26m
Waning Crescent, 8% of the Moon is Illuminated
Jan 20
Waning Crescent
Jan 23
New
Jan 30
First Quarter
Feb 7
Full
Feb 14
Last Quarter

Hourly Weather History & Observations

Time (CST) Temp. Dew Point Humidity Pressure Visibility Wind Dir Wind Speed Gust Speed Precip Events Conditions
12:10 AM 60.8 °F 57.2 °F 88% 29.98 in 10.0 mi Calm Calm - N/A   Overcast
12:53 AM 60.1 °F 59.0 °F 96% 29.97 in 9.0 mi South 4.6 mph - 0.03 in Rain Light Rain
1:19 AM 60.8 °F 60.8 °F 100% 29.97 in 4.0 mi South 3.5 mph - 0.01 in Rain Light Rain
1:25 AM 60.8 °F 60.8 °F 100% 29.97 in 1.8 mi South 3.5 mph - 0.08 in Rain Heavy Rain
1:49 AM 60.8 °F 60.8 °F 100% 29.97 in 3.0 mi South 3.5 mph - 0.25 in Rain Light Rain
1:53 AM 61.0 °F 61.0 °F 100% 29.96 in 6.0 mi South 4.6 mph - 0.25 in Rain Light Rain
2:23 AM 62.6 °F 60.8 °F 94% 29.97 in 5.0 mi South 4.6 mph - 0.00 in   Overcast
2:35 AM 62.6 °F 60.8 °F 94% 29.96 in 1.8 mi Calm Calm - 0.00 in   Overcast
2:49 AM 62.6 °F 60.8 °F 94% 29.96 in 0.5 mi South 4.6 mph - 0.00 in Fog Fog
2:53 AM 62.1 °F 61.0 °F 96% 29.95 in 0.5 mi South 4.6 mph - 0.00 in Fog Fog
3:53 AM 63.0 °F 62.1 °F 97% 29.94 in 0.5 mi South 4.6 mph - 0.07 in Fog , Rain Light Rain
4:13 AM 62.6 °F 62.6 °F 100% 29.95 in 4.0 mi South 3.5 mph - 0.00 in   Overcast
4:41 AM 64.4 °F 62.6 °F 94% 29.95 in 2.0 mi South 4.6 mph - 0.00 in   Overcast
4:51 AM 64.4 °F 62.6 °F 94% 29.95 in 1.8 mi South 5.8 mph - 0.00 in   Overcast
4:53 AM 64.0 °F 63.0 °F 96% 29.94 in 1.8 mi South 5.8 mph - 0.00 in   Overcast
5:04 AM 64.4 °F 64.4 °F 100% 29.95 in 2.0 mi South 3.5 mph - N/A   Overcast
5:11 AM 64.4 °F 62.6 °F 94% 29.95 in 1.8 mi South 4.6 mph - N/A   Overcast
5:40 AM 64.4 °F 64.4 °F 100% 29.95 in 3.0 mi South 6.9 mph - N/A   Overcast
5:53 AM 64.9 °F 64.0 °F 97% 29.95 in 4.0 mi South 4.6 mph - N/A   Overcast
6:09 AM 64.4 °F 64.4 °F 100% 29.96 in 5.0 mi SSW 5.8 mph - N/A   Overcast
6:53 AM 64.9 °F 64.9 °F 100% 29.96 in 6.0 mi SSW 4.6 mph - N/A   Overcast
7:53 AM 66.0 °F 64.9 °F 96% 29.96 in 6.0 mi South 4.6 mph - N/A   Overcast
8:53 AM 66.9 °F 64.9 °F 93% 29.98 in 6.0 mi South 4.6 mph - N/A   Overcast
9:17 AM 68.0 °F 66.2 °F 94% 30.00 in 7.0 mi South 9.2 mph - N/A   Overcast
9:53 AM 68.0 °F 66.0 °F 93% 29.99 in 10.0 mi SSW 8.1 mph - N/A   Overcast
10:53 AM 70.0 °F 66.0 °F 87% 29.98 in 10.0 mi SSW 9.2 mph 19.6 mph N/A   Overcast
11:17 AM 71.6 °F 66.2 °F 83% 29.98 in 10.0 mi SSW 10.4 mph - N/A   Overcast
11:53 AM 72.0 °F 66.0 °F 81% 29.96 in 10.0 mi SSW 8.1 mph - N/A   Overcast
12:53 PM 73.0 °F 64.9 °F 76% 29.92 in 10.0 mi SSW 9.2 mph - N/A   Overcast
1:13 PM 73.4 °F 64.4 °F 73% 29.93 in 10.0 mi SSW 12.7 mph 18.4 mph N/A   Mostly Cloudy
1:53 PM 73.9 °F 64.9 °F 73% 29.90 in 10.0 mi SSW 10.4 mph - N/A   Overcast
2:53 PM 75.9 °F 63.0 °F 64% 29.88 in 10.0 mi South 13.8 mph 20.7 mph N/A   Mostly Cloudy
3:53 PM 75.0 °F 63.0 °F 66% 29.89 in 10.0 mi SSW 16.1 mph 21.9 mph N/A   Mostly Cloudy
4:53 PM 73.0 °F 62.1 °F 68% 29.90 in 10.0 mi SSW 11.5 mph 19.6 mph N/A   Partly Cloudy
5:53 PM 70.0 °F 62.1 °F 76% 29.91 in 10.0 mi South 9.2 mph - N/A   Partly Cloudy
6:53 PM 69.1 °F 62.1 °F 78% 29.91 in 10.0 mi South 9.2 mph - N/A   Clear
7:53 PM 68.0 °F 63.0 °F 84% 29.92 in 10.0 mi South 8.1 mph - N/A   Overcast
8:04 PM 69.8 °F 62.6 °F 78% 29.93 in 10.0 mi South 6.9 mph - N/A   Overcast
8:16 PM 68.0 °F 62.6 °F 83% 29.94 in 10.0 mi SSW 8.1 mph - N/A   Mostly Cloudy
8:53 PM 68.0 °F 64.0 °F 87% 29.94 in 10.0 mi SSW 11.5 mph - N/A   Mostly Cloudy
9:08 PM 68.0 °F 64.4 °F 88% 29.94 in 10.0 mi SSW 9.2 mph - N/A   Mostly Cloudy
9:21 PM 68.0 °F 64.4 °F 88% 29.94 in 10.0 mi South 8.1 mph - N/A   Mostly Cloudy
9:30 PM 68.0 °F 64.4 °F 88% 29.94 in 10.0 mi South 9.2 mph - N/A   Mostly Cloudy
9:53 PM 68.0 °F 64.9 °F 90% 29.93 in 10.0 mi SSW 11.5 mph - N/A   Clear
10:30 PM 69.8 °F 64.4 °F 83% 29.95 in 10.0 mi SSW 9.2 mph - N/A   Mostly Cloudy
10:53 PM 69.1 °F 64.9 °F 87% 29.94 in 10.0 mi South 10.4 mph 18.4 mph N/A   Mostly Cloudy
11:53 PM 69.1 °F 64.9 °F 87% 29.95 in 10.0 mi SSW 9.2 mph - N/A   Mostly Cloudy